Weather Roundup
Issued by NWS

Home | Current Version | Previous Version | Text Only | Print | Product List | Glossary On
Versions: 1 2 3 4 5 6 7 8 9 10 11 12 13 14 15 16 17 18 19 20 21 22 23 24 25 26 27 28 29 30 31 32 33 34 35 36 37 38 39 40 41 42 43 44 45 46 47 48 49 50
000
NZUS93 KARX 202210
HRRWXR

CURRENT HOURLY OBSERVATIONS ACROSS
MUCH OF THE UPPER MISSISSIPPI VALLEY
NATIONAL WEATHER SERVICE LA CROSSE WI
500 PM CDT WED SEP 20 2017


...SOUTHEAST MINNESOTA...


CITY           SKY/WX    TMP DP  RH WIND       PRES   REMARKS
ROCHESTER      MOSUNNY   75  58  55 NW12      29.85S
ROCHESTER/MAYO FAIR      74  54  49 NW9       29.85S
WINONA         MOSUNNY   77  61  57 N13       29.82R
AUSTIN         SUNNY     73  55  53 NW12      29.85S
ALBERT LEA     SUNNY     79  54  41 W6        29.86R
DODGE CENTER   SUNNY     73  52  46 W8        29.86R
PRESTON        SUNNY     73  60  63 NW12      29.85R
OWATONNA       SUNNY     73  54  49 W7        29.86S
FARIBAULT      SUNNY     73  52  46 W6        29.86S
$$

...ELSEWHERE IN MINNESOTA...


CITY           SKY/WX    TMP DP  RH WIND       PRES   REMARKS
MINNEAPOLIS    SUNNY     74  52  46 W8        29.85R
INTNL FALLS    SUNNY     66  41  40 W12G18    29.78R
DULUTH         MOSUNNY   69  49  48 W15       29.81R
RED WING       SUNNY     77  46  33 NW8       29.82R
REDWOOD FALLS  SUNNY     72  45  37 VRB3      29.85S
MANKATO        SUNNY     72  49  44 NW6       29.87R
WORTHINGTON    SUNNY     72  41  32 CALM      29.88S
FAIRMONT       SUNNY     74  48  39 NW7       29.87
$$

...SOUTHWEST WISCONSIN...


CITY           SKY/WX    TMP DP  RH WIND       PRES   REMARKS
LA CROSSE      PTSUNNY   81  66  61 NW15        N/A
PRAIRIE DU CHI PTSUNNY   86  68  54 S5        29.77S
BOSCOBEL       MOSUNNY   89  71  55 SW5       29.78S HX  95
LONE ROCK      MOSUNNY   87  72  60 S10       29.77F HX  93
PLATTEVILLE    MOSUNNY   88  70  54 S13       29.81S HX  93
FORT MC COY    RAIN      75  72  89 SW5       29.80R
CAMP DOUGLAS   CLOUDY    75  75 100 CALM      29.79R THUNDER
MAUSTON-NEW LI CLOUDY    84  73  69 SW5       29.78R HX  90
VIROQUA        MOCLDY    80  72  77 SW6       29.81S
WIS DELLS      NOT AVBL
$$

...ELSEWHERE IN WISCONSIN...


CITY           SKY/WX    TMP DP  RH WIND       PRES   REMARKS
MILWAUKEE      MOSUNNY   85  69  58 S16G28    29.82F
MADISON        PTSUNNY   89  69  51 S13G22    29.78R HX  93
GREEN BAY      SUNNY     80  69  69 S14       29.82R
EAU CLAIRE     PTSUNNY   75  59  57 NW5       29.82R
BLACK RVR FLS  CLOUDY    82  67  60 W5        29.78R
MEDFORD        MOSUNNY   74  68  81 S5        29.82F
WAUSAU         CLOUDY    74  70  87 CALM      29.80R
WIS RAPIDS     TSTM      76  69  79 S7        29.81S
MARSHFIELD     CLOUDY    76  69  79 SW3       29.81R
RICE LAKE      SUNNY     76  53  46 SW6       29.85R
$$

...NORTHEAST IOWA...


CITY           SKY/WX    TMP DP  RH WIND       PRES   REMARKS
WATERLOO       CLOUDY    75  72  90 W8        29.79R
DUBUQUE        MOSUNNY   85  70  60 S10       29.80S
DECORAH        CLOUDY    75  73  94 VRB3      29.80R
MASON CITY     SUNNY     77  54  44 N9        29.86R
CHARLES CITY   SUNNY     81  63  54 NW12G17   29.82R
OELWEIN        PTSUNNY   84  72  65 SW9       29.81R
$$

...ELSEWHERE IN IOWA...


CITY           SKY/WX    TMP DP  RH WIND       PRES   REMARKS
DES MOINES     PTSUNNY   85  67  54 N10       29.79R
IOWA CITY      MOSUNNY   92  71  50 W12       29.79R HX  98
FORT DODGE     SUNNY     78  55  44 N7        29.85S
MARSHALLTOWN   LGT RAIN  79  74  84 CALM      29.80R
CEDAR RAPIDS   CLOUDY    87  70  56 SW13      29.79S HX  92
$$

...NORTHERN ILLINOIS...


CITY           SKY/WX    TMP DP  RH WIND       PRES   REMARKS
CHICAGO-OHARE  MOSUNNY   91  66  43 S20       29.84F HX  93
CHICAGO-MIDWAY SUNNY     92  67  43 S16G26    29.85F HX  95
MOLINE         SUNNY     93  68  43 S12G20    29.78R HX  97
ROCKFORD       MOSUNNY   90  67  46 S18       29.81F HX  93
PEORIA         SUNNY     92  69  47 S12G25    29.83F HX  97
$$

NOTE: "FAIR" INDICATES FEW OR NO CLOUDS BELOW 12,000 FEET WITH NO
SIGNIFICANT WEATHER AND/OR OBSTRUCTIONS TO VISIBILITY. WIND
SPEEDS ARE IN MILES-PER-HOUR.




USA.gov is the U.S. government's official web portal to all federal, state and local government web resources and services.